| time (UTC) | temp F | wind direction | speed MPH | gust MPH | rain 1hr in | rain 24hr in | rain mn in | humidity % | barometer mb |
| 20260505053052 | 49 | 0 | 0.0 | 0.0 | 0.00 | 0.00 | 0.00 | 70 | 1007.8 |
| 20260505052551 | 49 | 0 | 0.0 | 0.0 | 0.00 | 0.00 | 0.00 | 69 | 1007.7 |
| 20260505052051 | 50 | 0 | 0.0 | 0.0 | 0.00 | 0.00 | 0.00 | 69 | 1007.8 |
| 20260505051610 | 49 | 0 | 0.0 | 0.0 | 0.00 | 0.00 | 0.00 | 68 | 1007.7 |
| 20260505051051 | 50 | 0 | 0.0 | 0.0 | 0.00 | 0.00 | 0.00 | 67 | 1007.7 |
| 20260505050551 | 51 | 0 | 0.0 | 0.0 | 0.00 | 0.00 | 0.00 | 66 | 1007.7 |
| 20260505041556 | 55 | 0 | 0.0 | 0.0 | 0.00 | 0.00 | 0.00 | 56 | 1007.6 |
| 20260505041051 | 55 | 0 | 0.0 | 0.0 | 0.00 | 0.00 | 0.00 | 56 | 1007.6 |
| 20260505040551 | 55 | 0 | 0.0 | 1.0 | 0.00 | 0.00 | 0.00 | 56 | 1007.5 |
| 20260505040057 | 55 | 0 | 0.0 | 1.0 | 0.00 | 0.00 | 0.00 | 57 | 1007.5 |
| 20260505035551 | 54 | 0 | 0.0 | 2.0 | 0.00 | 0.00 | 0.00 | 58 | 1007.4 |
| 20260505035050 | 54 | 0 | 0.0 | 2.0 | 0.00 | 0.00 | 0.00 | 57 | 1007.2 |
| 20260505034552 | 54 | 0 | 0.0 | 0.0 | 0.00 | 0.00 | 0.00 | 57 | 1007.2 |
| 20260505034052 | 54 | 0 | 0.0 | 0.0 | 0.00 | 0.00 | 0.00 | 57 | 1007.3 |
| 20260505033551 | 55 | 0 | 0.0 | 0.0 | 0.00 | 0.00 | 0.00 | 57 | 1007.2 |
| 20260505033052 | 55 | 0 | 0.0 | 0.0 | 0.00 | 0.00 | 0.00 | 56 | 1007.1 |
| 20260505032552 | 55 | 0 | 0.0 | 0.0 | 0.00 | 0.00 | 0.00 | 57 | 1007.0 |
| 20260505032052 | 55 | 0 | 0.0 | 0.0 | 0.00 | 0.00 | 0.00 | 58 | 1007.0 |
| 20260505031556 | 55 | 0 | 0.0 | 2.0 | 0.00 | 0.00 | 0.00 | 58 | 1007.0 |
| 20260505031051 | 55 | 0 | 0.0 | 2.0 | 0.00 | 0.00 | 0.00 | 58 | 1007.0 |
| 20260505030551 | 55 | 0 | 0.0 | 2.0 | 0.00 | 0.00 | 0.00 | 57 | 1006.9 |
| 20260505030053 | 56 | 0 | 0.0 | 0.0 | 0.00 | 0.00 | 0.00 | 58 | 1006.8 |
| 20260505025551 | 56 | 0 | 0.0 | 0.0 | 0.00 | 0.00 | 0.00 | 56 | 1006.9 |
| 20260505025051 | 57 | 0 | 0.0 | 0.0 | 0.00 | 0.00 | 0.00 | 55 | 1006.8 |
| 20260505024558 | 57 | 0 | 0.0 | 0.0 | 0.00 | 0.00 | 0.00 | 53 | 1006.9 |
| 20260505024052 | 58 | 0 | 0.0 | 0.0 | 0.00 | 0.00 | 0.00 | 53 | 1006.9 |
| 20260505023552 | 58 | 0 | 0.0 | 0.0 | 0.00 | 0.00 | 0.00 | 52 | 1006.9 |
| 20260505023056 | 58 | 0 | 0.0 | 0.0 | 0.00 | 0.00 | 0.00 | 51 | 1006.9 |
| 20260505022552 | 58 | 0 | 0.0 | 0.0 | 0.00 | 0.00 | 0.00 | 50 | 1006.9 |
| 20260505022052 | 58 | 0 | 0.0 | 0.0 | 0.00 | 0.00 | 0.00 | 50 | 1006.9 |
| 20260505021555 | 58 | 0 | 0.0 | 0.0 | 0.00 | 0.00 | 0.00 | 49 | 1006.9 |
| 20260505021053 | 58 | 0 | 0.0 | 0.0 | 0.00 | 0.00 | 0.00 | 49 | 1006.9 |
| 20260505020551 | 58 | 0 | 0.0 | 0.0 | 0.00 | 0.00 | 0.00 | 49 | 1006.8 |
| 20260505020104 | 59 | 0 | 0.0 | 0.0 | 0.00 | 0.00 | 0.00 | 49 | 1006.9 |
| 20260505015551 | 59 | 0 | 0.0 | 0.0 | 0.00 | 0.00 | 0.00 | 49 | 1006.9 |
| 20260505015054 | 59 | 0 | 0.0 | 0.0 | 0.00 | 0.00 | 0.00 | 49 | 1006.8 |
| 20260505014557 | 59 | 0 | 0.0 | 0.0 | 0.00 | 0.00 | 0.00 | 49 | 1006.7 |
| 20260505014052 | 59 | 0 | 0.0 | 0.0 | 0.00 | 0.00 | 0.00 | 48 | 1006.8 |
| 20260505013551 | 59 | 0 | 0.0 | 0.0 | 0.00 | 0.00 | 0.00 | 47 | 1006.7 |
| 20260505013103 | 59 | 0 | 0.0 | 0.0 | 0.00 | 0.00 | 0.00 | 47 | 1006.7 |
| 20260505012551 | 59 | 0 | 0.0 | 0.0 | 0.00 | 0.00 | 0.00 | 47 | 1006.5 |
| 20260505012053 | 59 | 0 | 0.0 | 0.0 | 0.00 | 0.00 | 0.00 | 47 | 1006.6 |
| 20260505011555 | 60 | 0 | 0.0 | 0.0 | 0.00 | 0.00 | 0.00 | 46 | 1006.6 |
| 20260505011051 | 60 | 0 | 0.0 | 0.0 | 0.00 | 0.00 | 0.00 | 46 | 1006.5 |
| 20260505010551 | 60 | 0 | 0.0 | 0.0 | 0.00 | 0.00 | 0.00 | 45 | 1006.4 |
| 20260505010110 | 60 | 0 | 0.0 | 0.0 | 0.00 | 0.00 | 0.00 | 45 | 1006.4 |
| 20260505005552 | 61 | 0 | 0.0 | 0.0 | 0.00 | 0.00 | 0.00 | 44 | 1006.4 |
| 20260505005052 | 61 | 0 | 0.0 | 0.0 | 0.00 | 0.00 | 0.00 | 43 | 1006.3 |
| 20260505004551 | 61 | 0 | 0.0 | 0.0 | 0.00 | 0.00 | 0.00 | 43 | 1006.3 |
| 20260505004051 | 62 | 0 | 0.0 | 0.0 | 0.00 | 0.00 | 0.00 | 42 | 1006.1 |
| 20260505003551 | 62 | 0 | 0.0 | 0.0 | 0.00 | 0.00 | 0.00 | 42 | 1006.1 |
| 20260505003057 | 62 | 0 | 0.0 | 0.0 | 0.00 | 0.00 | 0.00 | 41 | 1006.0 |
| 20260505002551 | 63 | 0 | 0.0 | 0.0 | 0.00 | 0.00 | 0.00 | 41 | 1006.0 |
| 20260505002050 | 63 | 0 | 0.0 | 0.0 | 0.00 | 0.00 | 0.00 | 40 | 1006.1 |
| 20260505001603 | 63 | 0 | 0.0 | 0.0 | 0.00 | 0.00 | 0.00 | 40 | 1005.9 |
| 20260505001050 | 64 | 0 | 0.0 | 3.0 | 0.00 | 0.00 | 0.00 | 39 | 1005.7 |
| 20260505000554 | 64 | 0 | 0.0 | 3.0 | 0.00 | 0.00 | 0.00 | 39 | 1005.7 |
| 20260505000057 | 64 | 0 | 0.0 | 3.0 | 0.00 | 0.00 | 0.00 | 38 | 1005.5 |
| 20260504235551 | 65 | 0 | 0.0 | 1.0 | 0.00 | 0.00 | 0.00 | 38 | 1005.5 |
| 20260504235052 | 65 | 0 | 0.0 | 4.0 | 0.00 | 0.00 | 0.00 | 37 | 1005.4 |
| 20260504234550 | 65 | 0 | 0.0 | 4.0 | 0.00 | 0.00 | 0.00 | 37 | 1005.2 |
| 20260504234052 | 65 | 0 | 0.0 | 7.0 | 0.00 | 0.00 | 0.00 | 36 | 1005.3 |
| 20260504233550 | 66 | 0 | 0.0 | 7.0 | 0.00 | 0.00 | 0.00 | 36 | 1005.4 |
| 20260504233106 | 66 | 0 | 0.0 | 3.0 | 0.00 | 0.00 | 0.00 | 36 | 1005.3 |
| 20260504232554 | 66 | 0 | 0.0 | 3.0 | 0.00 | 0.00 | 0.00 | 35 | 1005.1 |
| 20260504232050 | 66 | 0 | 0.0 | 8.0 | 0.00 | 0.00 | 0.00 | 36 | 1005.1 |
| 20260504231551 | 66 | 0 | 0.0 | 8.0 | 0.00 | 0.00 | 0.00 | 35 | 1005.0 |
| 20260504231050 | 67 | 0 | 0.0 | 4.0 | 0.00 | 0.00 | 0.00 | 34 | 1004.8 |
| 20260504230548 | 67 | 0 | 0.0 | 13.0 | 0.00 | 0.00 | 0.00 | 35 | 1004.9 |
| 20260504230057 | 67 | 0 | 5.0 | 13.0 | 0.00 | 0.00 | 0.00 | 34 | 1004.9 |
| 20260504225550 | 67 | 0 | 0.0 | 13.0 | 0.00 | 0.00 | 0.00 | 34 | 1004.9 |
| 20260504225047 | 67 | 262 | 0.0 | 12.0 | 0.00 | 0.00 | 0.00 | 34 | 1004.8 |
| 20260504224551 | 68 | 0 | 1.0 | 12.0 | 0.00 | 0.00 | 0.00 | 33 | 1004.8 |
| 20260504224048 | 68 | 0 | 0.0 | 13.0 | 0.00 | 0.00 | 0.00 | 33 | 1004.8 |
| 20260504223549 | 68 | 344 | 0.0 | 13.0 | 0.00 | 0.00 | 0.00 | 33 | 1004.8 |
| 20260504223053 | 68 | 0 | 4.0 | 13.0 | 0.00 | 0.00 | 0.00 | 32 | 1004.7 |
| 20260504222552 | 68 | 0 | 0.0 | 13.0 | 0.00 | 0.00 | 0.00 | 32 | 1004.7 |
| 20260504222053 | 68 | 321 | 0.0 | 9.0 | 0.00 | 0.00 | 0.00 | 33 | 1004.6 |
| 20260504221550 | 69 | 0 | 0.0 | 10.0 | 0.00 | 0.00 | 0.00 | 33 | 1004.4 |
| 20260504221051 | 69 | 0 | 1.0 | 14.0 | 0.00 | 0.00 | 0.00 | 33 | 1004.4 |
| 20260504220548 | 68 | 315 | 0.0 | 17.0 | 0.00 | 0.00 | 0.00 | 33 | 1004.4 |
| 20260504220056 | 68 | 0 | 3.0 | 17.0 | 0.00 | 0.00 | 0.00 | 32 | 1004.3 |
| 20260504215548 | 68 | 0 | 1.0 | 19.0 | 0.00 | 0.00 | 0.00 | 33 | 1004.6 |
| 20260504215047 | 68 | 293 | 2.0 | 19.0 | 0.00 | 0.00 | 0.00 | 33 | 1004.5 |
| 20260504214556 | 68 | 0 | 9.0 | 19.0 | 0.00 | 0.00 | 0.00 | 33 | 1004.5 |
| 20260504214050 | 68 | 0 | 1.0 | 16.0 | 0.00 | 0.00 | 0.00 | 34 | 1004.4 |
| 20260504213548 | 67 | 252 | 4.0 | 16.0 | 0.00 | 0.00 | 0.00 | 35 | 1004.5 |
| 20260504213055 | 67 | 0 | 2.0 | 16.0 | 0.00 | 0.00 | 0.00 | 35 | 1004.5 |
| 20260504212548 | 67 | 0 | 4.0 | 15.0 | 0.00 | 0.00 | 0.00 | 35 | 1004.5 |
| 20260504212051 | 67 | 0 | 2.0 | 15.0 | 0.00 | 0.00 | 0.00 | 35 | 1004.6 |
| 20260504211553 | 67 | 0 | 4.0 | 15.0 | 0.00 | 0.00 | 0.00 | 35 | 1004.5 |
| 20260504211052 | 67 | 207 | 1.0 | 12.0 | 0.00 | 0.00 | 0.00 | 35 | 1004.3 |
| 20260504210550 | 67 | 0 | 1.0 | 11.0 | 0.00 | 0.00 | 0.00 | 35 | 1004.5 |
| 20260504210106 | 67 | 250 | 1.0 | 11.0 | 0.00 | 0.00 | 0.00 | 35 | 1004.5 |
| 20260504205550 | 66 | 269 | 0.0 | 12.0 | 0.00 | 0.00 | 0.00 | 35 | 1004.4 |
| 20260504205051 | 66 | 267 | 2.0 | 12.0 | 0.00 | 0.00 | 0.00 | 36 | 1004.5 |
| 20260504204602 | 66 | 297 | 2.0 | 10.0 | 0.00 | 0.00 | 0.00 | 35 | 1004.4 |
| 20260504204048 | 67 | 0 | 1.0 | 10.0 | 0.00 | 0.00 | 0.00 | 36 | 1004.6 |
| 20260504203551 | 67 | 0 | 1.0 | 12.0 | 0.00 | 0.00 | 0.00 | 35 | 1004.5 |
| 20260504203104 | 67 | 247 | 1.0 | 12.0 | 0.00 | 0.00 | 0.00 | 35 | 1004.5 |
| 20260504202549 | 67 | 0 | 1.0 | 16.0 | 0.00 | 0.00 | 0.00 | 37 | 1004.7 |
| 20260504202048 | 68 | 303 | 3.0 | 16.0 | 0.00 | 0.00 | 0.00 | 35 | 1004.6 |
| 20260504201555 | 68 | 314 | 4.0 | 14.0 | 0.00 | 0.00 | 0.00 | 34 | 1004.4 |
| 20260504201050 | 69 | 0 | 5.0 | 14.0 | 0.00 | 0.00 | 0.00 | 33 | 1004.4 |
| 20260504200548 | 69 | 250 | 2.0 | 14.0 | 0.00 | 0.00 | 0.00 | 35 | 1004.4 |
| 20260504200056 | 68 | 0 | 1.0 | 12.0 | 0.00 | 0.00 | 0.00 | 36 | 1004.5 |
| 20260504195551 | 68 | 0 | 3.0 | 12.0 | 0.00 | 0.01 | 0.00 | 35 | 1004.7 |
| 20260504195048 | 68 | 0 | 3.0 | 14.0 | 0.00 | 0.01 | 0.00 | 36 | 1004.8 |
| 20260504194605 | 67 | 0 | 3.0 | 14.0 | 0.00 | 0.01 | 0.00 | 35 | 1004.9 |
| 20260504194048 | 67 | 248 | 2.0 | 11.0 | 0.00 | 0.01 | 0.00 | 36 | 1004.9 |
| 20260504193549 | 67 | 329 | 0.0 | 14.0 | 0.00 | 0.01 | 0.00 | 36 | 1004.9 |
| 20260504193058 | 67 | 0 | 0.0 | 17.0 | 0.00 | 0.01 | 0.00 | 37 | 1004.9 |
| 20260504192550 | 67 | 0 | 3.0 | 18.0 | 0.00 | 0.01 | 0.00 | 37 | 1004.8 |
| 20260504192048 | 67 | 320 | 7.0 | 18.0 | 0.00 | 0.01 | 0.00 | 37 | 1004.9 |
| 20260504191555 | 66 | 0 | 1.0 | 19.0 | 0.00 | 0.01 | 0.00 | 39 | 1004.9 |
| 20260504191051 | 66 | 0 | 6.0 | 19.0 | 0.00 | 0.01 | 0.00 | 37 | 1004.7 |
| 20260504190551 | 67 | 0 | 4.0 | 17.0 | 0.00 | 0.01 | 0.00 | 37 | 1004.8 |
| 20260504190128 | 68 | 271 | 4.0 | 17.0 | 0.00 | 0.01 | 0.00 | 35 | 1004.9 |
| 20260504185548 | 68 | 0 | 1.0 | 24.0 | 0.00 | 0.01 | 0.00 | 36 | 1005.0 |
| 20260504185051 | 68 | 233 | 7.0 | 24.0 | 0.00 | 0.01 | 0.00 | 36 | 1005.0 |
| 20260504184555 | 67 | 201 | 5.0 | 19.0 | 0.00 | 0.01 | 0.00 | 39 | 1005.0 |
| 20260504184052 | 66 | 298 | 5.0 | 17.0 | 0.00 | 0.01 | 0.00 | 39 | 1005.1 |
| 20260504183551 | 65 | 0 | 4.0 | 17.0 | 0.00 | 0.01 | 0.00 | 40 | 1005.1 |
| 20260504183054 | 66 | 207 | 7.0 | 16.0 | 0.00 | 0.01 | 0.00 | 38 | 1005.0 |
| 20260504182551 | 67 | 266 | 3.0 | 18.0 | 0.00 | 0.01 | 0.00 | 38 | 1005.1 |
| 20260504182048 | 66 | 255 | 5.0 | 19.0 | 0.00 | 0.01 | 0.00 | 39 | 1005.2 |
| 20260504181559 | 66 | 288 | 4.0 | 19.0 | 0.00 | 0.01 | 0.00 | 40 | 1005.3 |
| 20260504181048 | 66 | 276 | 4.0 | 15.0 | 0.00 | 0.01 | 0.00 | 39 | 1005.2 |
| 20260504180551 | 65 | 301 | 2.0 | 12.0 | 0.00 | 0.01 | 0.00 | 41 | 1005.4 |
| 20260504180059 | 64 | 257 | 0.0 | 13.0 | 0.00 | 0.01 | 0.00 | 42 | 1005.5 |
| 20260504175550 | 62 | 272 | 1.0 | 13.0 | 0.00 | 0.01 | 0.00 | 45 | 1005.7 |
| 20260504175048 | 60 | 0 | 1.0 | 13.0 | 0.00 | 0.01 | 0.00 | 45 | 1005.8 |
| 20260504174559 | 60 | 0 | 0.0 | 13.0 | 0.00 | 0.01 | 0.00 | 46 | 1005.6 |
| 20260504174048 | 60 | 0 | 0.0 | 13.0 | 0.00 | 0.01 | 0.00 | 46 | 1005.8 |
| 20260504173547 | 60 | 0 | 4.0 | 17.0 | 0.00 | 0.01 | 0.00 | 44 | 1005.7 |
| 20260504173057 | 60 | 250 | 5.0 | 17.0 | 0.00 | 0.01 | 0.00 | 44 | 1005.8 |
| 20260504172553 | 60 | 0 | 3.0 | 17.0 | 0.00 | 0.01 | 0.00 | 46 | 1005.7 |
| 20260504172052 | 61 | 293 | 2.0 | 20.0 | 0.00 | 0.01 | 0.00 | 44 | 1005.6 |
| 20260504171558 | 61 | 302 | 2.0 | 20.0 | 0.00 | 0.01 | 0.00 | 44 | 1005.6 |
| 20260504171053 | 61 | 278 | 9.0 | 23.0 | 0.00 | 0.01 | 0.00 | 43 | 1005.5 |
| 20260504170552 | 61 | 321 | 5.0 | 23.0 | 0.00 | 0.01 | 0.00 | 43 | 1005.5 |
| 20260504151053 | 62 | 0 | 7.0 | 16.0 | 0.00 | 0.01 | 0.00 | 41 | 1006.1 |
| 20260504150551 | 61 | 288 | 3.0 | 16.0 | 0.00 | 0.01 | 0.00 | 43 | 1006.0 |
| 20260504141051 | 60 | 262 | 3.0 | 13.0 | 0.00 | 0.01 | 0.00 | 43 | 1006.1 |
| 20260504140551 | 60 | 0 | 4.0 | 13.0 | 0.00 | 0.01 | 0.00 | 44 | 1006.2 |
| 20260504130552 | 54 | 0 | 0.0 | 2.0 | 0.00 | 0.01 | 0.00 | 58 | 1007.1 |
| 20260504110553 | 39 | 0 | 0.0 | 0.0 | 0.00 | 0.01 | 0.00 | 84 | 1008.0 |
| 20260504100552 | 39 | 0 | 0.0 | 0.0 | 0.00 | 0.01 | 0.00 | 82 | 1007.8 |
| 20260504081600 | 39 | 0 | 0.0 | 0.0 | 0.00 | 0.01 | 0.00 | 75 | 1008.0 |
| 20260504081051 | 39 | 0 | 0.0 | 0.0 | 0.00 | 0.01 | 0.00 | 73 | 1007.9 |
| 20260504080551 | 39 | 0 | 0.0 | 0.0 | 0.00 | 0.01 | 0.00 | 75 | 1008.1 |
| 20260504060123 | 34 | 0 | 0.0 | 0.0 | 0.00 | 0.01 | 0.00 | 81 | 1007.8 |